Location: Unspecified
(0.0000°N, 0.0000°E)
Time: 00:28:38
(UTC+00:00)

N. Korean satellite - Pass Details

Date: 28 June 2017
Orbit: 462 x 515 km, 97.2° (Epoch: 19 August)

Event Time Altitude Azimuth Distance (km) Brightness Sun altitude
Rises 19:30:39 0° 205° (SSW) 2,628 10.3 -20.0°
Reaches altitude 10° 19:34:09 10° 240° (WSW) 1,730 9.8 -20.8°
Maximum altitude 19:35:19 11° 258° (WSW) 1,649 10.0 -21.0°
Drops below altitude 10° 19:36:29 10° 277° (W) 1,721 10.4 -21.3°
Sets 19:39:57 0° 312° (NW) 2,588 11.5 -22.1°
